Flag for Germany Weather past 2 weeks in Erfurt, Thuringia, Germany

64 °F

Broken clouds.

Feels Like: 64 °F
Forecast: 57 / 62 °F
Wind: 9 mph from Southeast

Location: Erfurt-Bindersleben

Current Time: Oct 6, 2015 at 5:00:57 PM

Latest Report: Oct 6, 2015 at 4:20 PM

Visibility: N/A

Pressure: 29.71 "Hg

Humidity: 73%

Dew point: 55 °F

Location of ErfurtLocation

Historic Weather in Erfurt — Graph


Erfurt temperature yesterday

Maximum temperature yesterday: 66 °F (at 2:20 PM)
Minimum temperature yesterday: 52 °F (at 12:20 AM)
Average temperature yesterday: 57 °F

Past Weeks' High & Low Weather Summary

High70 °F (Oct 3, 3:50 PM)100% (Sep 28, 6:20 AM)30.63 "Hg (Sep 28, 6:20 AM)
Low34 °F (Oct 2, 5:20 AM)41% (Oct 1, 2:20 PM)29.62 "Hg (Sep 22, 4:50 PM)
Average53 °F73%30.18 "Hg
* Reported Sep 21 3:20 PM — Oct 6 3:50 PM, Erfurt, Weather by CustomWeather, © 2015

Note: Actual official high and low records may vary slightly from our data, if they occured in-between our weather recording intervals... More about our weather records


Erfurt weather history for previous 24 hours

Time TempWeatherWind HumidityBarometerVisibility
3:50 PM
Tue, Oct 6
66 °FPartly sunny.9 mph68%29.74 "HgN/A
3:20 PM64 °FPartly sunny.9 mph73%29.74 "HgN/A
2:50 PM64 °FPartly sunny.8 mph73%29.74 "HgN/A
2:20 PM64 °FPartly sunny.9 mph73%29.74 "HgN/A
1:50 PM64 °FPartly sunny.12 mph73%29.74 "HgN/A
1:20 PM64 °FPartly sunny.12 mph73%29.74 "HgN/A
12:50 PM63 °FPartly sunny.12 mph77%29.74 "HgN/A
12:20 PM63 °FPartly sunny.9 mph77%29.74 "HgN/A
11:50 AM63 °FPartly sunny.10 mph77%29.74 "HgN/A
11:20 AM63 °FPartly sunny.10 mph77%29.74 "HgN/A
10:50 AM61 °FPartly sunny.9 mph77%29.74 "HgN/A
10:20 AM61 °FScattered clouds.9 mph77%29.74 "HgN/A
9:50 AM57 °FScattered clouds.8 mph82%29.74 "HgN/A
9:20 AM55 °FPartly sunny.9 mph88%29.74 "HgN/A
8:50 AM55 °FBroken clouds.6 mph88%29.74 "HgN/A
8:20 AM52 °FPartly cloudy.2 mph94%29.74 "HgN/A
7:50 AM52 °FPartly cloudy.5 mph94%29.74 "HgN/A
7:20 AM52 °FLight rain. Fog.5 mph94%29.74 "Hg2 mi
6:50 AM52 °FLight rain. Passing clouds.8 mph94%29.77 "HgN/A
6:20 AM54 °FLight rain. Passing clouds.7 mph82%29.77 "HgN/A
5:50 AM54 °FLight rain. Passing clouds.6 mph82%29.77 "HgN/A
5:20 AM54 °FLight rain. Clear.6 mph82%29.77 "HgN/A
4:50 AM54 °FLight rain. Clear.7 mph82%29.77 "HgN/A
4:20 AM54 °FLight rain. Partly cloudy.7 mph82%29.80 "HgN/A
3:50 AM54 °FLight rain. Passing clouds.7 mph82%29.80 "HgN/A
3:20 AM54 °FLight rain. Passing clouds.8 mph82%29.80 "HgN/A
2:50 AM55 °FPassing clouds.6 mph77%29.80 "HgN/A
2:20 AM55 °FClear.6 mph72%29.83 "Hg10 mi
1:50 AM54 °FClear.7 mph82%29.83 "Hg10 mi
1:20 AM54 °FClear.8 mph82%29.83 "Hg10 mi
12:50 AM54 °FClear.8 mph82%29.86 "Hg10 mi
12:20 AM54 °FClear.8 mph82%29.86 "Hg10 mi
11:20 PM
Mon, Oct 5
54 °FClear.7 mph82%29.86 "Hg10 mi
10:50 PM54 °FClear.7 mph82%29.89 "Hg10 mi
10:20 PM54 °FClear.8 mph82%29.89 "Hg10 mi
9:50 PM54 °FClear.7 mph77%29.89 "Hg10 mi
9:20 PM54 °FClear.6 mph82%29.89 "Hg10 mi
8:50 PM55 °FClear.5 mph77%29.92 "Hg10 mi
8:20 PM55 °FClear.5 mph72%29.92 "Hg10 mi
7:50 PM55 °FClear.6 mph72%29.92 "Hg10 mi
7:20 PM59 °FSunny.5 mph63%29.92 "Hg10 mi
6:50 PM59 °FSunny.6 mph63%29.92 "Hg10 mi
6:20 PM61 °FSunny.9 mph63%29.92 "Hg10 mi
5:50 PM61 °FPassing clouds.9 mph63%29.95 "HgN/A
5:20 PM61 °FPartly sunny.10 mph59%29.95 "HgN/A
Weather by CustomWeather, © 2015

See weather overviewHow to use our weather pages